Location: El Limón
(10.3059°N, 67.6321°W)
Time: 03:44:48
(UTC+00:00)

Daily predictions for brighter satellites

Satellite Brightness Start Highest point End
(mag) Time Altitude Azimuth Time Altitude Azimuth Time Altitude Azimuth
YAOGAN 1 4.5 00:10:51 10° SSW 00:14:33 29° W 00:18:16 10° NW
SJ-6B 3.1 00:21:15 64° NW 00:21:15 64° NW 00:24:42 10° NNW
PAYLOAD B 4.1 00:26:03 50° S 00:27:34 86° WSW 00:33:05 10° NNW
Longmarch 3A Rocket 3.3 00:23:34 10° NW 00:27:03 28° NNW 00:27:03 28° NNW
Ariane H10 4.2 00:25:45 10° W 00:32:28 37° SW 00:32:28 37° SW
Delta 7925 Rocket 4.2 00:33:27 10° NW 00:39:10 57° NNE 00:39:14 57° NNE
CZ-4 R/B 3.0 00:41:44 33° WNW 00:41:44 33° WNW 00:44:20 10° NNW
DELTA 4 R/B 3.3 00:35:56 10° WSW 00:44:35 89° NNW 00:45:41 70° ENE
VEP-3 4.3 01:20:13 10° WNW 01:40:30 42° N 01:40:44 42° N
ATLAS 5 CENTAUR R/B 4.0 06:07:21 10° W 06:52:03 43° NE 06:56:06 10° ENE
CZ-3 R/B 4.0 07:32:28 58° WSW 07:40:45 83° NNW 07:52:29 10° ENE
ARIANE 5 R/B 3.6 07:55:58 42° SSE 07:55:58 42° SSE 08:13:18 10° E
MAQSAT/ARIANE V 4.5 08:00:19 34° SSE 08:00:19 34° SSE 08:18:35 10° ESE
ARIANE 5 R/B 3.9 08:05:32 35° SE 08:05:32 35° SE 08:14:03 10° ESE
Cosmos 1943 Rocket 4.4 08:12:52 10° NNE 08:17:20 24° ENE 08:21:48 10° SE
ATLAS 2AS CENTAUR R/B 4.2 08:19:52 25° NNW 08:19:52 25° NNW 08:23:42 10° N
H-2A R/B 3.0 08:16:44 10° NNE 08:21:37 44° ESE 08:24:24 24° SSE
Cosmos 1867 3.8 08:26:25 10° NNW 08:31:49 69° ENE 08:37:11 10° SSE
Cosmos 1707 4.2 08:34:23 28° ESE 08:35:17 33° E 08:38:35 10° NNE
Cosmos 2266 Rocket 3.8 08:34:26 37° S 08:37:06 83° W 08:43:11 10° N
Cosmos 1655 Rocket 4.4 08:31:04 10° S 08:37:12 63° E 08:43:18 10° NNE
Cosmos 468 4.4 08:37:08 65° SSW 08:37:57 89° WNW 08:43:15 10° NNE
Cosmos 1943 3.6 08:35:20 26° S 08:38:31 62° ESE 08:44:06 10° NNE
Cosmos 1048 Rocket 4.3 08:39:52 51° NW 08:39:52 51° NW 08:44:20 10° N
CRYOSAT 2 4.2 08:36:43 10° N 08:41:35 89° E 08:43:09 44° S
ARIANE 5 R/B 3.7 08:33:05 34° W 08:41:45 73° S 08:47:35 10° ESE
Atlas Centaur 2 1.5 08:41:59 85° S 08:41:59 85° S 08:47:13 10° ESE
SL-08 ROCKET BODY 4.2 08:39:54 24° S 08:43:36 87° W 08:49:29 10° N
Ariane H10-3 4.3 08:51:46 18° S 08:51:46 18° S 08:53:48 10° SSE
SL-24 R/B - RUBIN 2 4.3 08:50:01 25° S 08:53:00 69° ESE 08:58:45 10° NNE
Cosmos 1633 Rocket 2.8 08:48:48 10° N 08:53:08 76° W 08:57:29 10° S
Cosmos 1603 4.2 08:54:53 10° S 09:00:22 59° ESE 09:05:50 10° NNE
SL-16 R/B 4.1 09:03:21 13° NW 09:03:21 13° NW 09:04:24 10° NW
Cosmos 2278 Rocket 2.3 08:56:20 10° NNW 09:01:48 51° WSW 09:07:15 10° S
Tiangong 0.1 09:00:40 13° NNW 09:02:51 25° NE 09:05:30 10° E
Cosmos 1674 3.8 09:05:15 25° NNW 09:05:15 25° NNW 09:07:00 10° NNW
Ariane H10-3 3.0 09:06:44 18° SSE 09:06:44 18° SSE 09:07:42 10° SE
ARIANE 5 R/B 3.0 09:03:52 10° NNE 09:09:00 64° ESE 09:14:07 10° S
Cosmos 1420 Rocket 3.9 09:04:28 10° NNW 09:09:45 89° WSW 09:15:03 10° SSE
Ariane H10-3 4.0 09:11:31 14° S 09:11:31 14° S 09:12:55 10° SSE
Cosmos 1461 2.6 09:08:54 10° NNW 09:12:41 84° ENE 09:16:32 10° SSE
Cosmos 2056 Rocket 3.6 09:08:20 10° N 09:13:44 82° ENE 09:19:07 10° SSE
KORONAS-FOTON 4.2 09:14:54 36° W 09:15:03 36° W 09:18:27 10° NNW
ARGOS 3.4 09:12:02 10° NNE 09:17:22 72° ESE 09:22:42 10° S
Cosmos 1553 Rocket 4.4 09:14:11 10° NNW 09:19:46 37° W 09:25:18 10° SSW
USA 267 4.3 09:16:24 10° S 09:21:02 21° SW 09:22:11 20° WSW
Cosmos 1939 Rocket 3.3 09:20:25 10° NNW 09:23:51 35° WNW 09:25:56 20° SW
Cosmos 1766 3.0 09:21:06 10° NNW 09:24:43 60° W 09:28:21 10° S
Cosmos 1624 Rocket 3.9 09:20:50 10° NNW 09:25:59 73° WSW 09:31:08 10° S
Ariane H10 3.4 09:23:33 18° W 09:29:37 47° SSW 09:32:38 10° ESE
ARIANE 5 R/B 3.8 09:28:27 10° SSW 09:30:45 17° SSE 09:35:44 10° ESE
DELTA 4 R/B -0.5 09:33:52 30° WNW 09:34:37 85° NNE 09:36:11 10° ESE
Aurora 2 Rocket 3.4 09:29:29 17° WSW 09:34:51 63° NNW 09:39:47 10° ENE
In-Cosmos 22 4.1 09:30:28 10° SSW 09:35:38 56° W 09:40:55 10° N
NOAA 12 4.1 09:32:42 10° N 09:37:56 87° W 09:43:09 10° SSW
SL-08 RB Rocket 3.7 09:33:42 10° N 09:38:18 89° W 09:42:52 10° SSW
Cosmos 1470 Rocket 4.3 09:35:20 10° NNW 09:39:13 30° W 09:43:07 10° SSW
Ariane H10+ 3.6 09:40:15 10° SW 09:41:24 11° SSW 09:42:26 10° S
YAOGAN 11 4.1 09:40:07 10° S 09:44:28 70° WSW 09:48:55 10° NNW
ISS -3.8 09:41:29 10° SW 09:44:48 69° NW 09:48:05 10° NNE
IUS-13 SRM-1 0.9 09:44:22 10° WNW 09:46:08 66° NNE 09:48:09 10° ESE
H-2A R/B 4.1 09:45:27 10° NW 09:47:26 15° WNW 09:49:18 10° WSW
COSMO-SKYMED 1 4.1 09:43:40 10° SSE 09:47:45 41° ENE 09:51:49 10° N
USA 306 2.7 09:44:49 10° SSW 09:48:41 77° ESE 09:52:24 10° NE
Cosmos 1908 3.9 09:46:12 10° N 09:49:44 55° E 09:53:15 10° SSE
GPS 2-15 Rocket1 4.0 09:45:59 10° W 09:50:36 43° NNW 09:55:12 10° ENE
SJ-6F 4.5 09:48:05 10° NNE 09:52:05 83° ESE 09:56:05 10° S
Cosmos 1862 Rocket 3.7 09:48:44 10° S 09:53:11 85° E 09:57:35 10° N
Meteor 1-23 Rocket 4.4 09:49:23 10° SSW 09:54:59 54° W 10:00:31 10° N
Nadezhda 2 Rocket 4.5 09:49:36 10° SSW 09:55:38 61° W 10:01:38 10° N
Cosmos 1400 Rocket 3.3 09:56:40 10° S 10:00:23 62° E 10:04:07 10° NNE
Cosmos 1943 Rocket 3.2 09:56:19 10° NW 10:00:48 24° WSW 10:05:17 10° SSW
Meteor 1-21 4.3 09:56:23 10° S 10:02:04 86° W 10:07:41 10° N
